Location: Rayville
(42.4642°N, 73.5384°W)
Time: 11:00:49
(UTC+00:00)

ACS3 Solar Sail - Visible Passes

Search period start: 04 October 2024 00:00
Search period end: 14 October 2024 00:00
Orbit: 963 x 1036 km, 97.4° (Epoch: 04 October)

Date Brightness Start Highest point End Pass type
(mag) Time Alt. Az. Time Alt. Az. Time Alt. Az.
04 Oct 2.2 00:12:42 31° ESE 00:15:11 44° ENE 00:21:09 10° N visible
04 Oct 3.3 01:57:53 29° WSW 01:59:13 32° W 02:04:50 10° NNW visible
04 Oct 3.5 23:01:10 10° E 23:04:09 14° ENE 23:07:07 10° NNE visible
05 Oct 1.8 00:45:13 49° SSE 00:47:03 77° ENE 00:53:25 10° N visible
05 Oct 4.0 02:30:24 17° W 02:31:36 17° W 02:35:41 10° NW visible
05 Oct 3.0 23:32:33 17° E 23:35:39 24° ENE 23:40:32 10° NNE visible
06 Oct 2.2 01:17:44 51° SSW 01:19:05 62° W 01:25:24 10° NNW visible
07 Oct 2.3 00:05:04 30° ESE 00:07:20 40° ENE 00:13:11 10° N visible
07 Oct 3.1 01:50:15 33° WSW 01:51:17 35° W 01:57:02 10° NNW visible
07 Oct 3.6 22:53:56 10° ENE 22:56:22 12° NE 22:58:47 10° NNE visible
08 Oct 1.8 00:37:35 51° SE 00:39:11 70° ENE 00:45:30 10° N visible
08 Oct 3.9 02:22:46 19° W 02:23:39 19° W 02:28:03 10° NW visible
08 Oct 3.0 23:24:55 16° E 23:27:50 22° ENE 23:32:27 10° NNE visible
09 Oct 2.1 01:10:06 58° SSW 01:11:11 68° W 01:17:31 10° NNW visible
09 Oct 2.4 23:57:26 30° ESE 23:59:30 37° ENE 00:05:12 10° N visible
10 Oct 3.0 01:42:37 37° WSW 01:43:21 38° W 01:49:13 10° NNW visible
10 Oct 3.6 22:46:53 10° ENE 22:48:34 11° NE 22:50:15 10° NE visible
11 Oct 1.8 00:29:56 52° SE 00:31:18 64° ENE 00:37:33 10° N visible
11 Oct 3.8 02:15:07 21° W 02:15:41 21° W 02:20:22 10° NW visible
11 Oct 3.1 23:17:16 15° E 23:20:01 20° ENE 23:24:21 10° NNE visible
12 Oct 1.9 01:02:27 65° SSW 01:03:17 74° WSW 01:09:37 10° NNW visible
12 Oct 4.5 02:47:38 10° W 02:48:12 11° W 02:49:32 10° WNW visible
12 Oct 2.5 23:49:47 28° E 23:51:38 34° ENE 23:57:11 10° N visible
13 Oct 2.8 01:34:58 41° WSW 01:35:25 42° W 01:41:22 10° NNW visible
